AL7IH Weather Reports


time (UTC)temp
F
wind
direction
speed
knots
gust
knots
rain 1hr
in
rain 24hr
in
rain mn
in
humidity
%
barometer
mb
20260506150026 74 248 0.0 0.0 0.00 0.00 0.00 89 1011.9
20260506144533 74 248 0.0 0.0 0.00 0.00 0.00 89 1011.7
20260506143032 74 215 0.0 1.7 0.00 0.00 0.00 89 1011.7
20260506141518 74 228 0.0 1.7 0.00 0.00 0.00 89 1011.5
20260506140025 74 309 0.0 1.7 0.00 0.00 0.00 89 1011.0
20260506134527 74 306 0.9 2.6 0.00 0.00 0.00 89 1010.7
20260506133030 74 301 0.0 2.6 0.00 0.00 0.00 89 1010.2
20260506131532 74 306 0.9 1.7 0.00 0.00 0.00 90 1010.1
20260506130024 74 272 0.0 1.7 0.00 0.00 0.00 90 1010.1
20260506124524 74 331 0.0 2.6 0.00 0.00 0.00 90 1009.9
20260506123029 73 302 0.9 2.6 0.00 0.00 0.00 90 1009.7
20260506121516 73 281 0.0 1.7 0.00 0.00 0.00 90 1009.7
20260506120022 73 312 0.0 2.6 0.00 0.00 0.00 90 1009.7
20260506114528 73 288 0.0 0.9 0.00 0.00 0.00 91 1009.8
20260506113026 73 315 0.0 0.0 0.00 0.00 0.00 91 1009.7
20260506111528 73 317 0.0 1.7 0.00 0.00 0.00 91 1009.7
20260506110022 73 271 0.0 1.7 0.00 0.00 0.00 91 1009.8
20260506104527 73 312 0.0 1.7 0.00 0.00 0.00 91 1009.8
20260506103033 73 339 0.0 3.5 0.00 0.00 0.00 91 1009.8
20260506101541 73 336 0.9 1.7 0.00 0.00 0.00 91 1009.7
20260506100028 73 282 0.9 3.5 0.00 0.00 0.00 91 1009.8
20260506094525 73 316 0.9 4.3 0.00 0.00 0.00 91 1009.9
20260506093004 74 281 0.9 5.2 0.00 0.00 0.00 90 1009.8
20260506091513 74 313 0.9 5.2 0.00 0.00 0.00 90 1009.6
20260506090016 74 302 1.7 3.5 0.00 0.00 0.00 89 1009.5
20260506084520 74 318 0.9 7.0 0.00 0.00 0.00 89 1009.4
20260506083006 74 262 1.7 6.1 0.00 0.00 0.00 89 1009.3
20260506081508 74 302 1.7 5.2 0.00 0.00 0.00 89 1009.5
20260506073038 75 319 1.7 6.1 0.00 0.00 0.00 88 1009.9
20260506071505 75 271 2.6 4.3 0.00 0.00 0.00 87 1010.1
20260506061526 75 359 0.0 6.1 0.00 0.00 0.00 86 1010.0
20260506044531 77 269 1.7 7.0 0.00 0.00 0.00 84 1009.9
20260506043016 77 270 1.7 5.2 0.00 0.00 0.00 84 1009.6
20260506041523 77 289 0.9 2.6 0.00 0.00 0.00 85 1009.5
20260506040028 77 254 0.9 1.7 0.00 0.00 0.00 84 1009.4
20260506034527 77 270 0.0 2.6 0.00 0.00 0.00 83 1009.4
20260506033016 76 283 0.9 1.7 0.00 0.00 0.00 84 1009.0
20260506031519 76 240 0.0 1.7 0.00 0.00 0.00 83 1008.8
20260506030026 76 233 0.0 0.0 0.00 0.00 0.00 81 1008.6
20260506024529 77 253 0.0 1.7 0.00 0.00 0.00 80 1008.3
20260506023012 77 280 0.0 0.9 0.00 0.00 0.00 79 1008.3
20260506021518 78 289 0.0 0.0 0.00 0.00 0.00 78 1008.0
20260506020024 78 289 0.0 0.9 0.00 0.00 0.00 78 1007.9
20260506014529 79 285 0.0 1.7 0.00 0.00 0.00 75 1007.6
20260506013027 80 302 0.0 1.7 0.00 0.00 0.00 74 1007.3
20260506011517 81 295 0.0 1.7 0.00 0.00 0.00 72 1007.2
20260506010021 82 280 0.0 1.7 0.00 0.00 0.00 1007.0
20260506004533 83 280 0.0 0.0 0.00 0.00 0.00 69 1007.2
20260506003038 84 280 0.0 0.9 0.00 0.00 0.00 66 1007.2
20260506001528 84 284 0.0 1.7 0.00 0.00 0.00 65 1007.2
20260506000025 85 284 0.0 2.6 0.00 0.00 0.00 63 1007.3
20260505234532 85 308 0.0 2.6 0.00 0.00 0.00 64 1007.2
20260505233027 86 279 0.9 2.6 0.00 0.00 0.00 62 1007.2
20260505231526 86 356 0.0 3.5 0.00 0.00 0.00 63 1007.2
20260505230014 85 318 0.0 4.3 0.00 0.00 0.00 64 1007.2
20260505224520 86 316 0.9 4.3 0.00 0.00 0.00 64 1007.2
20260505223026 85 314 2.6 6.1 0.00 0.00 0.00 63 1007.1
20260505221525 86 289 0.9 6.1 0.00 0.00 0.00 62 1007.2
20260505220038 86 258 0.9 6.1 0.00 0.00 0.00 62 1007.2
20260505214523 86 269 2.6 7.0 0.00 0.00 0.00 62 1007.3
20260505213026 86 343 0.9 3.5 0.00 0.00 0.00 62 1007.4
20260505211524 86 322 1.7 7.0 0.00 0.00 0.00 63 1007.7
20260505204527 86 305 1.7 7.0 0.00 0.00 0.00 63 1008.1
20260505203020 85 329 1.7 5.2 0.00 0.00 0.00 63 1008.3
20260505201525 85 1 1.7 6.1 0.00 0.00 0.00 64 1008.5
20260505200027 84 8 1.7 7.0 0.00 0.00 0.00 65 1008.8
20260505194534 84 352 2.6 6.1 0.00 0.00 0.00 65 1009.0
20260505193034 83 338 1.7 5.2 0.00 0.00 0.00 67 1009.2
20260505191532 83 280 1.7 3.5 0.00 0.00 0.00 67 1009.2
20260505190026 82 11 0.9 4.3 0.00 0.00 0.00 70 1009.3
20260505184531 81 30 1.7 5.2 0.00 0.00 0.00 70 1009.6
20260505183029 81 303 1.7 5.2 0.00 0.00 0.00 70 1009.9
20260505181522 80 297 2.6 6.1 0.00 0.00 0.00 73 1010.1
20260505180040 78 315 0.9 2.6 0.00 0.00 0.00 77 1010.4
20260505174535 78 47 0.9 4.3 0.00 0.00 0.00 77 1010.4
20260505173028 77 15 0.9 3.5 0.00 0.00 0.00 81 1010.3
20260505171534 75 333 1.7 3.5 0.00 0.00 0.00 82 1010.4
20260505170031 74 295 0.0 3.5 0.00 0.00 0.00 84 1010.4
20260505164526 73 24 1.7 4.3 0.00 0.00 0.00 86 1010.4
20260505163028 72 4 1.7 3.5 0.00 0.00 0.00 88 1010.3
20260505161528 71 32 0.9 2.6 0.00 0.00 0.00 92 1010.3
20260505153009 69 333 0.9 2.6 0.00 0.00 0.00 94 1010.5
20260505151514 69 302 0.9 2.6 0.00 0.00 0.00 94 1010.5